Date,X,Y
01/01/2014 00:00:01,141.350006103516,123.860000610352
01/01/2014 00:00:02,141.350006103516,123.860000610352
01/01/2014 00:00:03,141.501556396484,124.011558532715
01/01/2014 00:00:04,141.670501708984,124.180503845215
01/01/2014 00:00:05,141.876831054688,124.318916320801
01/01/2014 00:00:06,142.105331420898,124.428855895996
01/01/2014 00:00:07,142.272079467773,124.593032836914
01/01/2014 00:00:08,142.445434570313,124.812118530273
01/01/2014 00:00:09,142.584075927734,124.924186706543
01/01/2014 00:00:10,142.75651550293,124.991271972656
01/01/2014 00:00:11,142.970855712891,125.065216064453
01/01/2014 00:00:12,143.140853881836,125.16325378418
01/01/2014 00:00:13,143.322143554688,125.34309387207
01/01/2014 00:00:14,143.466018676758,125.45043182373
01/01/2014 00:00:15,143.509704589844,125.59447479248
01/01/2014 00:00:16,143.616271972656,125.733489990234
01/01/2014 00:00:17,143.75065612793,125.918212890625
01/01/2014 00:00:18,143.817184448242,126.077613830566
01/01/2014 00:00:19,143.881530761719,126.132614135742
01/01/2014 00:00:20,143.971893310547,126.177238464355
01/01/2014 00:00:21,144.019653320313,126.256141662598
01/01/2014 00:00:22,144.151489257813,126.367454528809
01/01/2014 00:00:23,144.304962158203,126.491302490234
01/01/2014 00:00:24,144.441665649414,126.612106323242
01/01/2014 00:00:25,144.62060546875,126.790176391602
01/01/2014 00:00:26,144.776229858398,126.951591491699
01/01/2014 00:00:27,144.895385742188,127.010963439941
01/01/2014 00:00:28,145.059036254883,127.058349609375
01/01/2014 00:00:29,145.20930480957,127.072868347168
01/01/2014 00:00:30,145.460098266602,127.065338134766
01/01/2014 00:00:31,145.669067382813,127.11808013916
01/01/2014 00:00:32,145.867416381836,127.164428710938
01/01/2014 00:00:33,146.074142456055,127.245712280273
01/01/2014 00:00:34,146.29216003418,127.293380737305
01/01/2014 00:00:35,146.515975952148,127.29914855957
01/01/2014 00:00:36,146.739898681641,127.349197387695
01/01/2014 00:00:37,146.896697998047,127.387893676758
01/01/2014 00:00:38,147.12809753418,127.399124145508
01/01/2014 00:00:39,147.383392333984,127.392448425293
01/01/2014 00:00:40,147.562789916992,127.382362365723
01/01/2014 00:00:41,147.735000610352,127.376846313477
01/01/2014 00:00:42,147.867568969727,127.376426696777
01/01/2014 00:00:43,148.035446166992,127.313491821289
01/01/2014 00:00:44,148.24853515625,127.262023925781
01/01/2014 00:00:45,148.419387817383,127.245613098145
01/01/2014 00:00:46,148.60188293457,127.188385009766
01/01/2014 00:00:47,148.811294555664,127.083297729492
01/01/2014 00:00:48,148.973098754883,126.955673217773
01/01/2014 00:00:49,149.149719238281,126.829193115234
01/01/2014 00:00:50,149.293106079102,126.712913513184
01/01/2014 00:00:51,149.468048095703,126.604507446289
01/01/2014 00:00:52,149.682510375977,126.498405456543
01/01/2014 00:00:53,149.851577758789,126.390937805176
01/01/2014 00:00:54,150.03205871582,126.281425476074
01/01/2014 00:00:55,150.175659179688,126.170776367188
01/01/2014 00:00:56,150.284301757813,125.995185852051
01/01/2014 00:00:57,150.379409790039,125.831619262695
01/01/2014 00:00:58,150.477752685547,125.704597473145
01/01/2014 00:00:59,150.584289550781,125.602584838867
01/01/2014 00:01:00,150.696243286133,125.441261291504
01/01/2014 00:01:01,150.809265136719,125.28588104248
01/01/2014 00:01:02,150.920928955078,125.094818115234
01/01/2014 00:01:03,151.031066894531,124.872047424316
01/01/2014 00:01:04,151.140502929688,124.702789306641
01/01/2014 00:01:05,151.314849853516,124.525543212891
01/01/2014 00:01:06,151.412994384766,124.319816589355
01/01/2014 00:01:07,151.486877441406,124.093978881836
01/01/2014 00:01:08,151.57209777832,123.863342285156
01/01/2014 00:01:09,151.611724853516,123.701873779297
01/01/2014 00:01:10,151.609268188477,123.534271240234
01/01/2014 00:01:11,151.655868530273,123.33324432373
01/01/2014 00:01:12,151.630249023438,123.172187805176
01/01/2014 00:01:13,151.654968261719,122.992767333984
01/01/2014 00:01:14,151.685775756836,122.846755981445
01/01/2014 00:01:15,151.765777587891,122.670829772949
01/01/2014 00:01:16,151.818786621094,122.391746520996
01/01/2014 00:01:17,151.829452514648,122.170066833496
01/01/2014 00:01:18,151.816467285156,121.908065795898
01/01/2014 00:01:19,151.801422119141,121.654281616211
01/01/2014 00:01:20,151.794418334961,121.358924865723
01/01/2014 00:01:21,151.794830322266,121.090942382813
01/01/2014 00:01:22,151.733184814453,120.862503051758
01/01/2014 00:01:23,151.682434082031,120.655258178711
01/01/2014 00:01:24,151.666076660156,120.514053344727
01/01/2014 00:01:25,151.608596801758,120.353485107422
01/01/2014 00:01:26,151.503280639648,120.214782714844
01/01/2014 00:01:27,151.375579833984,120.037109375
01/01/2014 00:01:28,151.313995361328,119.753608703613
01/01/2014 00:01:29,151.250991821289,119.593902587891
01/01/2014 00:01:30,151.224548339844,119.384536743164
01/01/2014 00:01:31,151.163848876953,119.148529052734
01/01/2014 00:01:32,151.124877929688,118.911033630371
01/01/2014 00:01:33,151.052932739258,118.683242797852
01/01/2014 00:01:34,151.009902954102,118.528907775879
01/01/2014 00:01:35,150.939224243164,118.36597442627
01/01/2014 00:01:36,150.898895263672,118.165863037109
01/01/2014 00:01:37,150.894790649414,117.938774108887
01/01/2014 00:01:38,150.843109130859,117.704795837402
01/01/2014 00:01:39,150.802368164063,117.476226806641
01/01/2014 00:01:40,150.790161132813,117.190071105957
01/01/2014 00:01:41,150.796859741211,116.984169006348
01/01/2014 00:01:42,150.742477416992,116.738006591797
01/01/2014 00:01:43,150.695114135742,116.490753173828
01/01/2014 00:01:44,150.613693237305,116.324005126953
01/01/2014 00:01:45,150.501449584961,116.158874511719
01/01/2014 00:01:46,150.442749023438,116.026916503906
01/01/2014 00:01:47,150.375762939453,115.791786193848
01/01/2014 00:01:48,150.280014038086,115.588111877441
01/01/2014 00:01:49,150.099182128906,115.387718200684
01/01/2014 00:01:50,149.925216674805,115.177101135254
01/01/2014 00:01:51,149.791809082031,115.021636962891
01/01/2014 00:01:52,149.623962402344,114.850738525391
01/01/2014 00:01:53,149.476089477539,114.709411621094
01/01/2014 00:01:54,149.358764648438,114.468963623047
01/01/2014 00:01:55,149.258270263672,114.264770507813
01/01/2014 00:01:56,149.159103393555,114.066131591797
01/01/2014 00:01:57,148.989196777344,113.85718536377
01/01/2014 00:01:58,148.825607299805,113.702346801758
01/01/2014 00:01:59,148.631332397461,113.531295776367
01/01/2014 00:02:00,148.474197387695,113.454460144043
01/01/2014 00:02:01,148.295181274414,113.39672088623
01/01/2014 00:02:02,148.083053588867,113.251121520996
01/01/2014 00:02:03,147.917556762695,113.155342102051
01/01/2014 00:02:04,147.739044189453,113.071624755859
01/01/2014 00:02:05,147.595596313477,112.977348327637
01/01/2014 00:02:06,147.421401977539,112.869468688965
01/01/2014 00:02:07,147.207565307617,112.754753112793
01/01/2014 00:02:08,147.038711547852,112.640014648438
01/01/2014 00:02:09,146.793273925781,112.463188171387
01/01/2014 00:02:10,146.596298217773,112.365173339844
01/01/2014 00:02:11,146.405609130859,112.292419433594
01/01/2014 00:02:12,146.200225830078,112.208068847656
01/01/2014 00:02:13,146.045059204102,112.103828430176
01/01/2014 00:02:14,145.872268676758,111.923164367676
01/01/2014 00:02:15,145.729263305664,111.752822875977
01/01/2014 00:02:16,145.617950439453,111.622299194336
01/01/2014 00:02:17,145.520431518555,111.455345153809
01/01/2014 00:02:18,145.356307983398,111.37190246582
01/01/2014 00:02:19,145.131927490234,111.242195129395
01/01/2014 00:02:20,144.950271606445,111.040245056152
01/01/2014 00:02:21,144.828414916992,110.862892150879
01/01/2014 00:02:22,144.673202514648,110.7353515625
01/01/2014 00:02:23,144.530960083008,110.63858795166
01/01/2014 00:02:24,144.413070678711,110.546646118164
01/01/2014 00:02:25,144.244934082031,110.44603729248
01/01/2014 00:02:26,144.09049987793,110.336326599121
01/01/2014 00:02:27,143.902984619141,110.157844543457
01/01/2014 00:02:28,143.747634887695,109.99153137207
01/01/2014 00:02:29,143.697082519531,109.863426208496
01/01/2014 00:02:30,143.654479980469,109.696792602539
01/01/2014 00:02:31,143.510513305664,109.547760009766
01/01/2014 00:02:32,143.344985961914,109.36408996582
01/01/2014 00:02:33,143.203369140625,109.209663391113
01/01/2014 00:02:34,143.090209960938,109.02855682373
01/01/2014 00:02:35,142.925704956055,108.813568115234
01/01/2014 00:02:36,142.77229309082,108.646598815918
01/01/2014 00:02:37,142.649032592773,108.532928466797
01/01/2014 00:02:38,142.481079101563,108.378410339355
01/01/2014 00:02:39,142.328979492188,108.233390808105
01/01/2014 00:02:40,142.208206176758,107.983184814453
01/01/2014 00:02:41,142.106643676758,107.772499084473
01/01/2014 00:02:42,142.072860717773,107.572540283203
01/01/2014 00:02:43,141.957061767578,107.365165710449
01/01/2014 00:02:44,141.875900268555,107.147300720215
01/01/2014 00:02:45,141.727081298828,106.859001159668
01/01/2014 00:02:46,141.573379516602,106.646957397461
01/01/2014 00:02:47,141.443466186523,106.526374816895
01/01/2014 00:02:48,141.335037231445,106.38468170166
01/01/2014 00:02:49,141.234512329102,106.188148498535
01/01/2014 00:02:50,141.196502685547,105.955276489258
01/01/2014 00:02:51,141.206558227539,105.779968261719
01/01/2014 00:02:52,141.165542602539,105.537033081055
01/01/2014 00:02:53,141.062881469727,105.344757080078
01/01/2014 00:02:54,140.995468139648,105.156921386719
01/01/2014 00:02:55,140.917419433594,104.951927185059
01/01/2014 00:02:56,140.88102722168,104.795928955078
01/01/2014 00:02:57,140.818298339844,104.687149047852
01/01/2014 00:02:58,140.716903686523,104.532150268555
01/01/2014 00:02:59,140.594573974609,104.319862365723
01/01/2014 00:03:00,140.470916748047,104.014640808105
01/01/2014 00:03:01,140.419647216797,103.786430358887
01/01/2014 00:03:02,140.233688354492,103.594657897949
01/01/2014 00:03:03,140.102142333984,103.46605682373
01/01/2014 00:03:04,139.940765380859,103.374336242676
01/01/2014 00:03:05,139.862319946289,103.286972045898
01/01/2014 00:03:06,139.864151000977,103.188041687012
01/01/2014 00:03:07,139.832977294922,103.077842712402
01/01/2014 00:03:08,139.871505737305,102.963134765625
01/01/2014 00:03:09,139.915924072266,102.84935760498
01/01/2014 00:03:10,140.001419067383,102.80305480957
01/01/2014 00:03:11,140.053344726563,102.746871948242
01/01/2014 00:03:12,140.060882568359,102.654899597168
01/01/2014 00:03:13,140.110626220703,102.472732543945
01/01/2014 00:03:14,140.148361206055,102.29613494873
01/01/2014 00:03:15,140.223770141602,102.096214294434
01/01/2014 00:03:16,140.335052490234,101.874893188477
01/01/2014 00:03:17,140.395416259766,101.645568847656
01/01/2014 00:03:18,140.529037475586,101.41845703125
01/01/2014 00:03:19,140.678787231445,101.196449279785
01/01/2014 00:03:20,140.876571655273,100.977722167969
01/01/2014 00:03:21,141.042297363281,100.694717407227
01/01/2014 00:03:22,141.162017822266,100.487373352051
01/01/2014 00:03:23,141.257125854492,100.238731384277
01/01/2014 00:03:24,141.35090637207,100.054908752441
01/01/2014 00:03:25,141.518600463867,99.8114700317383
01/01/2014 00:03:26,141.617706298828,99.6222763061523
01/01/2014 00:03:27,141.824844360352,99.3722839355469
01/01/2014 00:03:28,141.954147338867,99.1799163818359
01/01/2014 00:03:29,142.040130615234,98.9948883056641
01/01/2014 00:03:30,142.057647705078,98.7922515869141
01/01/2014 00:03:31,142.036727905273,98.5721435546875
01/01/2014 00:03:32,142.077255249023,98.4098129272461
01/01/2014 00:03:33,142.119079589844,98.2371673583984
01/01/2014 00:03:34,142.136795043945,98.0323715209961
01/01/2014 00:03:35,142.134155273438,97.8054122924805
01/01/2014 00:03:36,142.189590454102,97.6383438110352
01/01/2014 00:03:37,142.301040649414,97.4646224975586
01/01/2014 00:03:38,142.369735717773,97.2608871459961
01/01/2014 00:03:39,142.445266723633,97.0352401733398
01/01/2014 00:03:40,142.479034423828,96.8039321899414
01/01/2014 00:03:41,142.540634155273,96.641845703125
01/01/2014 00:03:42,142.577331542969,96.4091339111328
01/01/2014 00:03:43,142.582168579102,96.1549377441406
01/01/2014 00:03:44,142.571075439453,95.9120941162109
01/01/2014 00:03:45,142.624862670898,95.6873931884766
01/01/2014 00:03:46,142.673553466797,95.472900390625
01/01/2014 00:03:47,142.691436767578,95.1944732666016
01/01/2014 00:03:48,142.686126708984,94.9891510009766
01/01/2014 00:03:49,142.609558105469,94.8051605224609
01/01/2014 00:03:50,142.548919677734,94.7384338378906
01/01/2014 00:03:51,142.530578613281,94.6942901611328
01/01/2014 00:03:52,142.540405273438,94.5557022094727
01/01/2014 00:03:53,142.620864868164,94.3952255249023
01/01/2014 00:03:54,142.682846069336,94.2555389404297
01/01/2014 00:03:55,142.700698852539,94.077018737793
01/01/2014 00:03:56,142.689910888672,93.9229736328125
01/01/2014 00:03:57,142.673751831055,93.6752014160156
01/01/2014 00:03:58,142.729782104492,93.4702224731445
01/01/2014 00:03:59,142.782379150391,93.2739486694336
01/01/2014 00:04:00,142.802551269531,93.1321258544922
01/01/2014 00:04:01,142.79753112793,92.9665298461914
01/01/2014 00:04:02,142.720260620117,92.7591018676758
01/01/2014 00:04:03,142.658920288086,92.5919723510742
01/01/2014 00:04:04,142.640289306641,92.5399398803711
01/01/2014 00:04:05,142.650161743164,92.4360580444336
01/01/2014 00:04:06,142.665924072266,92.3073120117188
01/01/2014 00:04:07,142.674774169922,92.1145324707031
01/01/2014 00:04:08,142.675598144531,91.8794403076172
01/01/2014 00:04:09,142.672637939453,91.7007598876953
01/01/2014 00:04:10,142.669860839844,91.4559783935547
01/01/2014 00:04:11,142.668807983398,91.2635726928711
01/01/2014 00:04:12,142.669067382813,91.0114974975586
01/01/2014 00:04:13,142.604858398438,90.7538681030273
01/01/2014 00:04:14,142.616928100586,90.5810241699219
01/01/2014 00:04:15,142.588302612305,90.3502731323242
01/01/2014 00:04:16,142.559860229492,90.1669845581055
01/01/2014 00:04:17,142.548278808594,89.9815139770508
01/01/2014 00:04:18,142.550445556641,89.7099151611328
01/01/2014 00:04:19,142.492080688477,89.4982833862305
01/01/2014 00:04:20,142.443328857422,89.3063201904297
01/01/2014 00:04:21,142.427261352539,89.1707611083984
01/01/2014 00:04:22,142.43408203125,89.008544921875
01/01/2014 00:04:23,142.446273803711,88.8013153076172
01/01/2014 00:04:24,142.453460693359,88.6329574584961
01/01/2014 00:04:25,142.454376220703,88.4500885009766
01/01/2014 00:04:26,142.387298583984,88.1744995117188
01/01/2014 00:04:27,142.331893920898,87.9585266113281
01/01/2014 00:04:28,142.313934326172,87.634895324707
01/01/2014 00:04:29,142.257064819336,87.3930816650391
01/01/2014 00:04:30,142.152908325195,87.1977005004883
01/01/2014 00:04:31,142.090774536133,87.0068511962891
01/01/2014 00:04:32,142.017639160156,86.8655395507813
01/01/2014 00:04:33,141.918258666992,86.6981430053711
01/01/2014 00:04:34,141.866729736328,86.4890213012695
01/01/2014 00:04:35,141.800323486328,86.3212432861328
01/01/2014 00:04:36,141.766998291016,86.1396255493164
01/01/2014 00:04:37,141.702026367188,85.9945678710938
01/01/2014 00:04:38,141.662368774414,85.8203125
01/01/2014 00:04:39,141.59162902832,85.6719741821289
01/01/2014 00:04:40,141.484970092773,85.4920043945313
01/01/2014 00:04:41,141.296752929688,85.3403244018555
01/01/2014 00:04:42,141.121185302734,85.2896957397461
01/01/2014 00:04:43,140.989486694336,85.1806488037109
01/01/2014 00:04:44,140.888580322266,85.1119384765625
01/01/2014 00:04:45,140.730072021484,84.9705581665039
01/01/2014 00:04:46,140.576538085938,84.8178634643555
01/01/2014 00:04:47,140.385848999023,84.6857147216797
01/01/2014 00:04:48,140.162628173828,84.5101776123047
01/01/2014 00:04:49,140.057708740234,84.3554992675781
01/01/2014 00:04:50,139.933456420898,84.2357177734375
01/01/2014 00:04:51,139.809661865234,84.1360321044922
01/01/2014 00:04:52,139.694213867188,83.9736251831055
01/01/2014 00:04:53,139.585388183594,83.8163986206055
01/01/2014 00:04:54,139.478591918945,83.6891479492188
01/01/2014 00:04:55,139.435607910156,83.5843734741211
01/01/2014 00:04:56,139.379272460938,83.5505981445313
01/01/2014 00:04:57,139.350708007813,83.5658798217773
01/01/2014 00:04:58,139.350357055664,83.5922698974609
01/01/2014 00:04:59,139.361801147461,83.6076507568359
01/01/2014 00:05:00,139.43620300293,83.6094512939453
01/01/2014 00:05:01,139.427688598633,83.4748687744141
01/01/2014 00:05:02,139.390167236328,83.2988357543945
01/01/2014 00:05:03,139.362884521484,83.0798645019531
01/01/2014 00:05:04,139.355880737305,82.9075469970703
01/01/2014 00:05:05,139.361343383789,82.7911224365234
01/01/2014 00:05:06,139.368682861328,82.5716705322266
01/01/2014 00:05:07,139.372467041016,82.3096313476563
01/01/2014 00:05:08,139.437454223633,82.1197814941406
01/01/2014 00:05:09,139.489196777344,81.8768920898438
01/01/2014 00:05:10,139.505004882813,81.6906204223633
01/01/2014 00:05:11,139.561614990234,81.507682800293
01/01/2014 00:05:12,139.601577758789,81.3042526245117
01/01/2014 00:05:13,139.676025390625,81.0826416015625
01/01/2014 00:05:14,139.720703125,80.7896575927734
01/01/2014 00:05:15,139.791702270508,80.5104293823242
01/01/2014 00:05:16,139.896484375,80.206901550293
01/01/2014 00:05:17,139.953338623047,80.0075454711914
01/01/2014 00:05:18,140.08674621582,79.7089996337891
01/01/2014 00:05:19,140.172882080078,79.48095703125
01/01/2014 00:05:20,140.318572998047,79.2217025756836
01/01/2014 00:05:21,140.467651367188,78.9728012084961
01/01/2014 00:05:22,140.530197143555,78.7451858520508
01/01/2014 00:05:23,140.585220336914,78.5956726074219
01/01/2014 00:05:24,140.604721069336,78.5015029907227
01/01/2014 00:05:25,140.663009643555,78.4207000732422
01/01/2014 00:05:26,140.767715454102,78.3281631469727
01/01/2014 00:05:27,140.829711914063,78.2853851318359
01/01/2014 00:05:28,140.902496337891,78.1585083007813
01/01/2014 00:05:29,140.936767578125,78.0070724487305
01/01/2014 00:05:30,140.999923706055,77.8051300048828
01/01/2014 00:05:31,141.037673950195,77.5718231201172
01/01/2014 00:05:32,141.107604980469,77.2686233520508
01/01/2014 00:05:33,141.149505615234,76.9858169555664
01/01/2014 00:05:34,141.220062255859,76.6186676025391
01/01/2014 00:05:35,141.260772705078,76.3685760498047
01/01/2014 00:05:36,141.265213012695,76.1193771362305
01/01/2014 00:05:37,141.252166748047,75.95263671875
01/01/2014 00:05:38,141.239639282227,75.7234420776367
01/01/2014 00:05:39,141.234710693359,75.4740524291992
01/01/2014 00:05:40,141.170944213867,75.2337112426758
01/01/2014 00:05:41,141.120620727539,75.0090713500977
01/01/2014 00:05:42,140.975769042969,74.8584899902344
01/01/2014 00:05:43,140.877563476563,74.6973419189453
01/01/2014 00:05:44,140.856399536133,74.5620346069336
01/01/2014 00:05:45,140.814468383789,74.3224945068359
01/01/2014 00:05:46,140.723846435547,74.0517272949219
01/01/2014 00:05:47,140.666717529297,73.7980804443359
01/01/2014 00:05:48,140.592132568359,73.5713119506836
01/01/2014 00:05:49,140.554382324219,73.3595504760742
01/01/2014 00:05:50,140.489135742188,73.1490936279297
01/01/2014 00:05:51,140.451080322266,72.9335479736328
01/01/2014 00:05:52,140.381759643555,72.7132797241211
01/01/2014 00:05:53,140.340484619141,72.4912338256836
01/01/2014 00:05:54,140.205307006836,72.3345413208008
01/01/2014 00:05:55,140.046478271484,72.1024475097656
01/01/2014 00:05:56,139.906723022461,71.9114227294922
01/01/2014 00:05:57,139.857208251953,71.785041809082
01/01/2014 00:05:58,139.809066772461,71.6948318481445
01/01/2014 00:05:59,139.724990844727,71.607795715332
01/01/2014 00:06:00,139.675765991211,71.5085144042969
01/01/2014 00:06:01,139.540115356445,71.2681427001953
01/01/2014 00:06:02,139.384140014648,71.0467834472656
01/01/2014 00:06:03,139.182067871094,70.8340148925781
01/01/2014 00:06:04,139.015380859375,70.6853866577148
01/01/2014 00:06:05,138.89665222168,70.5858535766602
01/01/2014 00:06:06,138.737869262695,70.4354095458984
01/01/2014 00:06:07,138.591415405273,70.2879409790039
01/01/2014 00:06:08,138.406646728516,70.0989074707031
01/01/2014 00:06:09,138.185394287109,69.9394378662109
01/01/2014 00:06:10,137.949890136719,69.7563934326172
01/01/2014 00:06:11,137.717697143555,69.6067657470703
01/01/2014 00:06:12,137.429183959961,69.4942016601563
01/01/2014 00:06:13,137.157974243164,69.3983688354492
01/01/2014 00:06:14,136.924041748047,69.3010406494141
01/01/2014 00:06:15,136.713638305664,69.1956253051758
01/01/2014 00:06:16,136.507232666016,69.0841903686523
01/01/2014 00:06:17,136.29443359375,68.9711303710938
01/01/2014 00:06:18,136.074783325195,68.8592071533203
01/01/2014 00:06:19,135.787231445313,68.7488861083984
01/01/2014 00:06:20,135.576538085938,68.6394119262695
01/01/2014 00:06:21,135.391891479492,68.5299758911133
01/01/2014 00:06:22,135.197082519531,68.4850921630859
01/01/2014 00:06:23,134.918350219727,68.4931640625
01/01/2014 00:06:24,134.639846801758,68.4533309936523
01/01/2014 00:06:25,134.460800170898,68.4173278808594
01/01/2014 00:06:26,134.298431396484,68.4690093994141
01/01/2014 00:06:27,134.10888671875,68.461311340332
01/01/2014 00:06:28,133.955123901367,68.4986572265625
01/01/2014 00:06:29,133.712097167969,68.5324630737305
01/01/2014 00:06:30,133.510894775391,68.5448760986328
01/01/2014 00:06:31,133.315780639648,68.4763259887695
01/01/2014 00:06:32,133.043609619141,68.4149856567383
01/01/2014 00:06:33,132.835464477539,68.3927764892578
01/01/2014 00:06:34,132.58171081543,68.334846496582
01/01/2014 00:06:35,132.39404296875,68.2964324951172
01/01/2014 00:06:36,132.214416503906,68.2886734008789
01/01/2014 00:06:37,131.94938659668,68.2980728149414
01/01/2014 00:06:38,131.740783691406,68.3089599609375
01/01/2014 00:06:39,131.548568725586,68.1842956542969
01/01/2014 00:06:40,131.346710205078,68.0775375366211
01/01/2014 00:06:41,131.13020324707,67.9762191772461
01/01/2014 00:06:42,130.905609130859,67.936882019043
01/01/2014 00:06:43,130.680419921875,67.946174621582
01/01/2014 00:06:44,130.458038330078,67.9699325561523
01/01/2014 00:06:45,130.238220214844,67.9207458496094
01/01/2014 00:06:46,130.019348144531,67.8706359863281
01/01/2014 00:06:47,129.735321044922,67.7848358154297
01/01/2014 00:06:48,129.462326049805,67.6701126098633
01/01/2014 00:06:49,129.22509765625,67.5463180541992
01/01/2014 00:06:50,129.077606201172,67.4917984008789
01/01/2014 00:06:51,128.859268188477,67.432991027832
01/01/2014 00:06:52,128.610900878906,67.407096862793
01/01/2014 00:06:53,128.43180847168,67.4099884033203
01/01/2014 00:06:54,128.25700378418,67.3581008911133
01/01/2014 00:06:55,128.057327270508,67.3143463134766
01/01/2014 00:06:56,127.835441589355,67.3646011352539
01/01/2014 00:06:57,127.670425415039,67.4237899780273
01/01/2014 00:06:58,127.561210632324,67.4517364501953
01/01/2014 00:06:59,127.409530639648,67.515251159668
01/01/2014 00:07:00,127.200149536133,67.555908203125
01/01/2014 00:07:01,127.025695800781,67.5632019042969
01/01/2014 00:07:02,126.77384185791,67.6173858642578
01/01/2014 00:07:03,126.50902557373,67.7237167358398
01/01/2014 00:07:04,126.330192565918,67.8536148071289
01/01/2014 00:07:05,126.097473144531,67.9814376831055
01/01/2014 00:07:06,125.915031433105,68.097900390625
01/01/2014 00:07:07,125.666191101074,68.2058944702148
01/01/2014 00:07:08,125.407119750977,68.3115921020508
01/01/2014 00:07:09,125.102012634277,68.4837646484375
01/01/2014 00:07:10,124.893089294434,68.6465301513672
01/01/2014 00:07:11,124.652221679688,68.7743301391602
01/01/2014 00:07:12,124.475433349609,68.8772811889648
01/01/2014 00:07:13,124.299438476563,69.0390701293945
01/01/2014 00:07:14,124.162704467773,69.1944580078125
01/01/2014 00:07:15,123.992958068848,69.320442199707
01/01/2014 00:07:16,123.844909667969,69.4898223876953
01/01/2014 00:07:17,123.728210449219,69.5771026611328